Location: Bachas
(43.2439°N, 0.9375°E)
Time: 16:19:51
(UTC+00:00)

Cosmos 1484 Rocket - Pass Details

Date: 18 February 2020
Orbit: 507 x 559 km, 97.4° (Epoch: 30 March)

Event Time Altitude Azimuth Distance (km) Brightness Sun altitude
Rises 05:01:24 0° 10° (N) 2,716 6.5 -20.6°
Reaches altitude 10° 05:03:32 10° 9° (N) 1,826 5.6 -20.2°
Maximum altitude 05:07:28 76° 284° (WNW) 574 2.7 -19.5°
Enters shadow 05:11:01 13° 199° (SSW) 1,658 5.0 -18.8°
